Find Starlink 5955

NORAD ID: 56342 Int'l Des: 2023-058 Owner: SPXS Country: US Constellation: starlink operational
LEOCIRCULARRETROGRADESSO

現在のビュー

3D地球を読み込み中...

About Starlink 5955

Starlink 5955 (NORAD 56342) is a starlink constellation satellite (v1.5) launched Apr 27, 2023 by SPXS of US. It operates in LEO, CIRCULAR, RETROGRADE, SSO orbit with a mass of 300.00 kg.

Starlink 5955について

説明を読み込み中...

次回通過

Passes for default location (London). Set your location on the main map for personalized predictions.

高度履歴

Loading altitude history...

軌道要素

1 56342U 23058AB 26195.59106068 -.00000082 00000-0 -18027-5 0 9991
2 56342 97.2850 194.2872 0002193 89.5071 270.6408 15.05653517177292
Epoch: Jul 14, 2026 • Age: 9 hours

現在のステータス

高度 579.0 km
遠地点 / 近地点 N/A
速度 7.57 km/s
衛星直下点 -79.42°S, 49.09°E
打ち上げ日 Apr 27, 2023
運用期間 3.2 years
タイプ internet

技術仕様

分類 Payload
質量 300.00 kg
乾燥質量 260.00 kg
総質量 300.00 kg
長さ 0.20 m
直径 2.80 m
スパン 9.00 m
形状 Box + pan
製造者 SPXS
バスタイプ Starlink
フェーズステータス In Orbit
所有者/国 SPXS/US

Most Searched